Location: Falniów
(50.3639°N, 19.9642°E)
Time: 21:39:15
(UTC+00:00)

ARIANE 5 R/B - Pass Details

Date: 18 January 2026
Orbit: 746 x 793 km, 98.8° (Epoch: 18 February)

Event Time Altitude Azimuth Distance (km) Brightness Sun altitude
Rises 04:52:33 0° 20° (NNE) 3,267 5.8 -15.4°
Reaches altitude 10° 04:55:02 10° 28° (NNE) 2,327 5.2 -15.0°
Maximum altitude 04:59:51 40° 98° (E) 1,124 4.0 -14.2°
Drops below altitude 10° 05:04:33 10° 167° (SSE) 2,282 5.3 -13.5°
Sets 05:06:58 0° 175° (S) 3,196 6.0 -13.1°
